[[{"header":{"parameterUnit":"m.s-1","parameterCategory":1,"la1":30.2991,"la2":30.254,"lo1":-89.0895,"lo2":-89.0444,"dy":0.0017,"dx":0.0017,"nx":28,"ny":28,"refTime":"2025-09-06T09:00:00:Z","depth":0,"parameterNumber":2,"parameterNumberName":"U-component_of_WINDS"},"data":[0,0,0,0,0,0,0,0,0,0,0,0,0,0,0,0,0,0,0,0,0,0,0,0,0,0,0,0,0,0,0,0,0,0,0,0,0,0,0,0,0,0,0,0,0,0,0,0,0,0,0,0,0,0,0,0,0,0,-0.6224,-0.6225,0,-0.6264,-0.6265,-0.6265,-0.6254,-0.6253,-0.6252,-0.6251,-0.6294,-0.6295,-0.6297,0,0,0,0,0,0,0,0,0,0,0,0,0,-0.614,-0.6142,-0.6224,-0.6225,-0.6225,-0.6264,-0.6265,-0.6265,-0.6254,-0.6253,-0.6252,-0.6251,-0.6293,-0.6295,-0.6297,0,0,0,0,0,0,0,0,0,0,0,0,0,-0.6178,-0.6143,-0.6224,-0.6224,-0.6225,-0.6264,-0.6265,-0.6265,-0.6254,-0.6253,-0.6252,-0.625,-0.6292,-0.6295,-0.6298,-0.634,0,0,-0.6306,-0.6308,0,0,0,0,0,0,0,0,-0.6176,-0.6181,-0.6224,-0.6224,-0.6225,-0.6253,-0.625,-0.629,-0.6254,-0.6243,-0.6251,-0.625,-0.6281,-0.6285,-0.6295,-0.6342,-0.6343,-0.6307,-0.6308,-0.631,-0.631,0,0,0,0,0,0,0,-0.6173,-0.618,-0.624,-0.6225,-0.6225,-0.6223,-0.6227,-0.6258,-0.6268,-0.6244,-0.6243,-0.6248,-0.6281,-0.6292,-0.6296,-0.6344,-0.6307,-0.6309,-0.6311,-0.6312,-0.6428,-0.6429,0,0,0,0,0,0,-0.617,-0.6177,-0.6239,-0.6241,-0.6197,-0.6225,-0.623,-0.6245,-0.6268,-0.627,-0.6249,-0.6247,-0.6288,-0.6292,-0.6297,-0.6348,-0.6309,-0.6312,-0.6314,-0.6426,-0.6428,-0.643,0,0,0,0,0,0,-0.6168,-0.6176,-0.6237,-0.6209,-0.6217,-0.6228,-0.6245,-0.6246,-0.6258,-0.6272,-0.6274,-0.6258,-0.6287,-0.6293,-0.6329,-0.635,-0.6313,-0.6316,-0.6425,-0.6427,-0.6429,-0.6451,0,0,0,0,0,0,-0.6166,-0.6175,-0.6191,-0.621,-0.6218,-0.6268,-0.6246,-0.6248,-0.6262,-0.626,-0.6281,-0.6283,-0.6287,-0.6325,-0.6332,-0.6353,-0.6318,-0.6423,-0.6426,-0.6428,-0.6448,-0.6453,-0.6457,0,0,0,0,0,-0.6163,-0.6196,-0.6192,-0.6199,-0.6238,-0.6269,-0.6274,-0.6277,-0.6264,-0.628,-0.6289,-0.6283,-0.6346,-0.6329,-0.6337,-0.6359,-0.6422,-0.6425,-0.6428,-0.6446,-0.6452,-0.6457,0,0,0,0,0,0,-0.618,-0.6198,-0.6194,-0.6234,-0.625,-0.6267,-0.6288,-0.6283,-0.6304,-0.6302,-0.6305,-0.631,-0.6347,-0.6356,-0.6336,-0.6401,-0.6382,-0.6387,-0.6393,-0.6399,-0.6404,-0.6401,-0.6321,0,0,0,0,0,-0.6188,-0.6211,-0.6226,-0.626,-0.6268,-0.6277,-0.629,-0.6291,-0.6308,-0.6315,-0.6327,-0.6345,-0.6368,-0.6384,-0.6407,-0.6449,-0.6454,-0.6468,-0.6473,-0.6477,-0.6481,-0.6505,-0.6512,-0.644,-0.644,-0.644,0,0,-0.6205,-0.6218,-0.6233,-0.6263,-0.6276,-0.6301,-0.6283,-0.6309,-0.6328,-0.6319,-0.6354,-0.6363,-0.6383,-0.6423,-0.6441,-0.6432,-0.6502,-0.6481,-0.6484,-0.6486,-0.6509,-0.6515,-0.6522,-0.6442,-0.6442,-0.6441,0,0,-0.6249,-0.6261,-0.6291,-0.6304,-0.6323,-0.6328,-0.6336,-0.6354,-0.636,-0.6394,-0.6389,-0.6411,-0.6452,-0.6466,-0.6479,-0.6529,-0.6524,-0.6536,-0.6561,-0.6584,-0.6589,-0.6594,-0.6613,-0.6619,-0.654,-0.654,-0.654,0,-0.6269,-0.6305,-0.6306,-0.6334,-0.6348,-0.6341,-0.6371,-0.6383,-0.641,-0.642,-0.6409,-0.646,-0.6473,-0.6516,-0.6528,-0.6539,-0.6547,-0.6534,-0.6588,-0.6593,-0.6598,-0.6616,-0.6623,-0.6542,-0.6541,-0.6541,-0.6541,0,-0.6328,-0.6353,-0.6375,-0.64,-0.6416,-0.6444,-0.6451,-0.6467,-0.6466,-0.6473,-0.6509,-0.6524,-0.655,-0.656,-0.6559,-0.6603,-0.6597,-0.6587,-0.6569,-0.6606,-0.6623,-0.663,-0.6544,-0.6543,-0.6543,-0.6542,0,0,-0.6384,-0.6409,-0.6417,-0.6429,-0.6449,-0.6469,-0.6498,-0.6523,-0.6537,-0.6555,-0.658,-0.6614,-0.6606,-0.662,-0.6621,-0.6641,-0.6681,-0.663,-0.663,-0.6639,-0.6731,-0.6738,-0.6746,-0.6677,-0.6678,-0.6679,-0.6729,0,-0.6431,-0.648,-0.6482,-0.6528,-0.6551,-0.6545,-0.657,-0.6586,-0.6593,-0.6615,-0.6623,-0.6647,-0.6634,-0.6643,-0.6662,-0.6672,-0.6699,-0.6668,-0.6701,-0.6702,-0.6697,-0.6755,-0.6763,-0.6809,-0.6736,-0.6737,-0.6738,0,-0.6491,-0.6511,-0.6559,-0.6577,-0.6587,-0.6609,-0.6632,-0.6652,-0.6671,-0.6674,-0.669,-0.6689,-0.6719,-0.6699,-0.674,-0.6719,-0.6733,-0.6739,-0.6741,-0.6745,-0.6723,-0.6761,-0.6824,-0.6831,-0.6748,-0.6747,-0.6746,0,-0.6528,-0.6567,-0.66,-0.661,-0.6632,-0.6648,-0.6657,-0.6674,-0.6689,-0.6709,-0.6719,-0.6743,-0.6756,-0.6775,-0.678,-0.6765,-0.6822,-0.6802,-0.6827,-0.6827,-0.6839,-0.6839,-0.6906,-0.6847,-0.6847,-0.6847,-0.6846,0,-0.658,-0.661,-0.6617,-0.6638,-0.6671,-0.6674,-0.6707,-0.6715,-0.673,-0.6753,-0.6749,-0.6771,-0.6776,-0.6799,-0.6803,-0.6837,-0.6843,-0.6847,-0.6848,-0.6848,-0.6848,-0.6858,-0.6855,-0.6848,-0.6848,-0.6848,-0.6847,0,-0.6628,-0.6634,-0.667,-0.6687,-0.6692,-0.6716,-0.6731,-0.6751,-0.6757,-0.6786,-0.6793,-0.6804,-0.6831,-0.6837,-0.6869,-0.6872,-0.6913,-0.691,-0.6907,-0.6907,-0.6931,-0.6929,-0.7008,-0.7019,-0.6952,-0.6953,-0.6953,0,-0.6661,-0.6683,-0.6703,-0.6717,-0.6728,-0.6752,-0.6767,-0.677,-0.6786,-0.6808,-0.6826,-0.6852,-0.6873,-0.6917,-0.6928,-0.6952,-0.6951,-0.6977,-0.6955,-0.6954,-0.6952,-0.6951,-0.6954,-0.6981,-0.6982,-0.6982,-0.6983,0,-0.6719,-0.6721,-0.6743,-0.6765,-0.6783,-0.6802,-0.6819,-0.6832,-0.6837,-0.6856,-0.6883,-0.6899,-0.6932,-0.6958,-0.6983,-0.6994,-0.699,-0.699,-0.6997,-0.6997,-0.6995,-0.6997,-0.6919,-0.6988,-0.6988,-0.6987,-0.6987,-0.6987,-0.6761,-0.6781,-0.6798,-0.6822,-0.6835,-0.6852,-0.6872,-0.6881,-0.6903,-0.693,-0.693,-0.696,-0.6978,-0.7011,-0.7023,-0.7047,-0.7039,-0.7049,-0.7052,-0.7055,-0.7057,-0.699,-0.7051,-0.7051,-0.7051,-0.7051,-0.7051,0,-0.682,-0.683,-0.6852,-0.6877,-0.6896,-0.689,-0.6909,-0.6926,-0.6952,-0.6969,-0.6989,-0.7021,-0.7047,-0.7059,-0.7085,-0.7102,-0.7101,-0.7108,-0.7108,-0.711,-0.7062,-0.7054,-0.7109,-0.7109,-0.7109,-0.7109,-0.7109,-0.7109,-0.6853,-0.6886,-0.689,-0.6931,-0.6941,-0.697,-0.6981,-0.6997,-0.701,-0.7045,-0.7066,-0.7074,-0.709,-0.7117,-0.714,-0.7143,-0.7153,-0.7162,-0.7165,-0.712,-0.7114,-0.7108,-0.71,-0.7164,-0.7164,-0.7211,-0.7212,-0.7212]},{"header":{"parameterUnit":"m.s-1","parameterCategory":1,"la1":30.2991,"la2":30.254,"lo1":-89.0895,"lo2":-89.0444,"dy":0.0017,"dx":0.0017,"nx":28,"ny":28,"refTime":"2025-09-06T09:00:00:Z","depth":0,"parameterNumber":3,"parameterNumberName":"V-component_of_WINDS"},"data":[0,0,0,0,0,0,0,0,0,0,0,0,0,0,0,0,0,0,0,0,0,0,0,0,0,0,0,0,0,0,0,0,0,0,0,0,0,0,0,0,0,0,0,0,0,0,0,0,0,0,0,0,0,0,0,0,0,0,0.1385,0.1385,0,0.1342,0.1342,0.1341,0.1341,0.1341,0.1342,0.1342,0.1294,0.1292,0.129,0,0,0,0,0,0,0,0,0,0,0,0,0,0.1463,0.1462,0.1385,0.1385,0.1384,0.1342,0.1342,0.1341,0.134,0.1341,0.1342,0.1342,0.1294,0.1292,0.129,0,0,0,0,0,0,0,0,0,0,0,0,0,0.1426,0.1461,0.1385,0.1379,0.1378,0.1342,0.1341,0.1341,0.134,0.1341,0.1342,0.1343,0.1295,0.1292,0.129,0.1256,0,0,0.1281,0.128,0,0,0,0,0,0,0,0,0.1428,0.1423,0.138,0.1379,0.1378,0.1348,0.1351,0.1312,0.134,0.1354,0.1342,0.1343,0.1311,0.1307,0.1297,0.1254,0.1252,0.1281,0.1279,0.1278,0.1278,0,0,0,0,0,0,0,0.143,0.1424,0.1368,0.138,0.1378,0.1377,0.1373,0.1344,0.1328,0.1353,0.1353,0.1348,0.131,0.1299,0.1295,0.1251,0.1281,0.1279,0.1277,0.1276,0.1177,0.1176,0,0,0,0,0,0,0.1435,0.1427,0.1369,0.1367,0.1406,0.1375,0.137,0.1357,0.1329,0.1325,0.1348,0.1348,0.1303,0.1299,0.1294,0.1252,0.1278,0.1276,0.1274,0.1178,0.1177,0.1176,0,0,0,0,0,0,0.1436,0.143,0.1371,0.1397,0.1389,0.1373,0.1358,0.1355,0.1344,0.1324,0.1321,0.134,0.1304,0.1298,0.1265,0.125,0.1275,0.1272,0.1179,0.1178,0.1176,0.1168,0,0,0,0,0,0,0.1439,0.143,0.1418,0.1396,0.1388,0.1345,0.1357,0.1354,0.134,0.1341,0.1316,0.1313,0.1304,0.127,0.1263,0.1247,0.127,0.118,0.1178,0.1177,0.1169,0.1166,0.1164,0,0,0,0,0,0.1441,0.1417,0.1418,0.1411,0.1373,0.1344,0.1339,0.1331,0.1339,0.1326,0.1313,0.1313,0.1253,0.1266,0.1259,0.1242,0.1181,0.1179,0.1177,0.1171,0.1167,0.1164,0,0,0,0,0,0,0.1436,0.1414,0.1415,0.1383,0.1365,0.1344,0.1328,0.1327,0.1306,0.1307,0.1297,0.1291,0.1259,0.1247,0.1262,0.1207,0.1218,0.1214,0.1216,0.1212,0.1209,0.1212,0.1268,0,0,0,0,0,0.1431,0.1411,0.1393,0.1366,0.1357,0.1344,0.1331,0.1327,0.1308,0.13,0.1285,0.1265,0.1242,0.1226,0.1204,0.1168,0.1162,0.1152,0.1149,0.1147,0.1143,0.1123,0.1118,0.1168,0.1168,0.1168,0,0,0.1421,0.1406,0.1394,0.1365,0.1351,0.1328,0.1338,0.1314,0.1297,0.1296,0.1265,0.1253,0.123,0.1196,0.118,0.1185,0.1128,0.1144,0.1143,0.114,0.112,0.1115,0.1111,0.1167,0.1167,0.1167,0,0,0.1391,0.1378,0.1354,0.1341,0.132,0.1311,0.1305,0.1284,0.1276,0.1246,0.1244,0.1223,0.1183,0.1167,0.1153,0.1117,0.1116,0.111,0.1094,0.1073,0.1069,0.1066,0.1052,0.1047,0.1106,0.1106,0.1106,0,0.138,0.1348,0.1342,0.1318,0.1305,0.1304,0.1279,0.1265,0.1238,0.1227,0.1234,0.1184,0.1168,0.113,0.1121,0.111,0.1102,0.1112,0.1071,0.1067,0.1064,0.105,0.1045,0.1106,0.1106,0.1106,0.1106,0,0.1335,0.1313,0.1296,0.1271,0.1255,0.1231,0.122,0.1205,0.1201,0.1192,0.1159,0.1141,0.1114,0.1105,0.1101,0.1066,0.1069,0.1073,0.1084,0.1058,0.1045,0.104,0.1105,0.1105,0.1105,0.1105,0,0,0.1299,0.1272,0.1265,0.1253,0.1231,0.1212,0.1188,0.1163,0.115,0.1131,0.1108,0.1075,0.1079,0.1063,0.1057,0.104,0.1011,0.1046,0.1045,0.1039,0.0969,0.0965,0.0959,0.101,0.1009,0.1009,0.097,0,0.1266,0.1223,0.1217,0.1179,0.1157,0.1156,0.1134,0.1117,0.1107,0.1087,0.1075,0.1051,0.1058,0.1049,0.1032,0.1018,0.0996,0.1021,0.0988,0.0987,0.0993,0.0952,0.0949,0.0913,0.0965,0.0964,0.0964,0,0.1221,0.1202,0.1162,0.1141,0.1132,0.1113,0.1089,0.107,0.105,0.1044,0.1027,0.1023,0.0996,0.1009,0.097,0.0987,0.0973,0.0964,0.0963,0.0958,0.0973,0.0946,0.0902,0.0896,0.0956,0.0956,0.0957,0,0.1197,0.1162,0.1133,0.1123,0.1099,0.1085,0.1074,0.1055,0.104,0.1019,0.101,0.0985,0.0972,0.0952,0.0941,0.0952,0.0903,0.0915,0.0896,0.0896,0.0884,0.0885,0.0836,0.0877,0.0878,0.0878,0.0878,0,0.116,0.1135,0.1122,0.1104,0.1076,0.1069,0.104,0.1029,0.1013,0.0991,0.0989,0.0969,0.0957,0.0934,0.0926,0.0894,0.0888,0.0881,0.0879,0.0881,0.0882,0.0871,0.0872,0.0876,0.0877,0.0877,0.0877,0,0.1128,0.1119,0.1088,0.1068,0.1062,0.1042,0.1024,0.1006,0.0996,0.097,0.0963,0.0947,0.0921,0.0909,0.0876,0.087,0.0834,0.0834,0.0841,0.084,0.082,0.0822,0.0762,0.0753,0.0801,0.0801,0.0801,0,0.1105,0.1086,0.1064,0.105,0.1039,0.1017,0.1003,0.0994,0.0979,0.0955,0.0939,0.0913,0.0892,0.0849,0.0834,0.0808,0.0807,0.0788,0.0803,0.0805,0.0805,0.0806,0.0803,0.0785,0.0784,0.0784,0.0783,0,0.1063,0.1059,0.1039,0.1017,0.1,0.0982,0.0964,0.0952,0.0941,0.0923,0.0897,0.0881,0.0847,0.0821,0.0795,0.0781,0.078,0.0779,0.0773,0.0774,0.0778,0.0775,0.0832,0.078,0.078,0.0781,0.0781,0.0781,0.1034,0.1017,0.0999,0.0976,0.0962,0.0945,0.0927,0.0916,0.0894,0.0867,0.0863,0.0835,0.0814,0.0779,0.0765,0.0742,0.0746,0.0737,0.0735,0.0733,0.0731,0.0783,0.0737,0.0737,0.0737,0.0737,0.0737,0,0.0991,0.0979,0.0959,0.0934,0.0916,0.0918,0.0898,0.0882,0.0858,0.084,0.0819,0.0788,0.0762,0.0745,0.0719,0.0703,0.0702,0.0697,0.0697,0.0694,0.0729,0.0737,0.0698,0.0698,0.0698,0.0698,0.0698,0.0698,0.0966,0.0937,0.0931,0.0895,0.0883,0.0856,0.0845,0.0829,0.0814,0.078,0.076,0.0749,0.0731,0.0703,0.0679,0.0675,0.0664,0.0659,0.0654,0.0687,0.0691,0.0695,0.0702,0.0657,0.0657,0.062,0.062,0.062]}]]